Location: Düngen
(52.0952°N, 10.0219°E)
Time: 19:50:08
(UTC+00:00)

Cosmos 1536 - Pass Details

Date: 11 March 2026
Orbit: 482 x 504 km, 82.5° (Epoch: 20 April)

Event Time Altitude Azimuth Distance (km) Brightness Sun altitude
Exits shadow 19:58:41 50° 333° (NNW) 651 3.4 -24.7°
Drops below altitude 10° 20:01:44 10° 5° (N) 1,732 5.6 -25.1°
Sets 20:03:54 0° 9° (N) 2,624 6.6 -25.4°
